TimeCST,TemperatureF,Dew PointF,Humidity,Sea Level PressureIn,VisibilityMPH,Wind Direction,Wind SpeedMPH,Gust SpeedMPH,PrecipitationIn,Events,Conditions,WindDirDegrees,DateUTC
12:58 AM,18.0,-0.0,45,30.48,10.0,NNE,13.8,-,N/A,,Overcast,20,2014-01-28 06:58:00
1:58 AM,18.1,-1.8,41,30.45,10.0,NNE,13.8,-,N/A,,Overcast,30,2014-01-28 07:58:00
2:58 AM,16.0,-3.6,42,30.45,10.0,North,9.2,-,N/A,,Clear,10,2014-01-28 08:58:00
3:58 AM,17.4,-6.7,34,30.45,10.0,NNE,16.1,-,N/A,,Overcast,20,2014-01-28 09:58:00
4:58 AM,16.9,-3.6,40,30.46,10.0,NNE,16.1,-,N/A,,Mostly Cloudy,30,2014-01-28 10:58:00
5:58 AM,16.2,5.7,64,30.49,10.0,NNE,16.1,-,N/A,,Overcast,30,2014-01-28 11:58:00
6:58 AM,16.0,7.2,68,30.52,10.0,NNE,15.0,-,N/A,,Overcast,20,2014-01-28 12:58:00
7:58 AM,15.8,7.5,70,30.56,10.0,NNE,10.4,-,N/A,,Overcast,20,2014-01-28 13:58:00
8:58 AM,17.1,8.8,70,30.57,10.0,NNE,9.2,-,N/A,,Overcast,20,2014-01-28 14:58:00
9:53 AM,17.6,8.6,68,30.52,10.0,NNE,5.8,-,N/A,,Mostly Cloudy,20,2014-01-28 15:53:00
9:58 AM,18.3,9.3,68,30.58,10.0,North,5.8,-,N/A,,Mostly Cloudy,10,2014-01-28 15:58:00
10:23 AM,21.2,10.4,63,30.52,10.0,NNW,5.8,-,N/A,,Scattered Clouds,330,2014-01-28 16:23:00
10:58 AM,22.8,9.7,57,30.59,10.0,Variable,5.8,-,N/A,,Clear,0,2014-01-28 16:58:00
11:58 AM,25.9,4.8,41,30.57,10.0,NNE,6.9,-,N/A,,Clear,30,2014-01-28 17:58:00
12:58 PM,28.2,5.4,38,30.53,10.0,NNE,8.1,-,N/A,,Clear,20,2014-01-28 18:58:00
1:58 PM,30.2,6.3,36,30.49,10.0,NW,8.1,-,N/A,,Clear,320,2014-01-28 19:58:00
2:58 PM,31.1,7.2,37,30.46,10.0,North,3.5,-,N/A,,Clear,10,2014-01-28 20:58:00
3:58 PM,31.6,7.7,37,30.45,10.0,Variable,1.2,-,N/A,,Clear,0,2014-01-28 21:58:00
4:58 PM,32.2,8.2,37,30.45,10.0,NNE,5.8,-,N/A,,Clear,20,2014-01-28 22:58:00
5:58 PM,29.8,7.2,38,30.45,10.0,Calm,Calm,-,N/A,,Clear,0,2014-01-28 23:58:00
6:58 PM,23.2,6.1,48,30.45,10.0,SSE,5.8,-,N/A,,Clear,160,2014-01-29 00:58:00
7:58 PM,19.6,5.9,55,30.45,10.0,South,5.8,-,N/A,,Clear,190,2014-01-29 01:58:00
8:58 PM,17.6,5.5,59,30.45,10.0,South,5.8,-,N/A,,Clear,190,2014-01-29 02:58:00
9:58 PM,14.2,4.1,64,30.45,10.0,SSE,5.8,-,N/A,,Clear,160,2014-01-29 03:58:00
10:58 PM,16.0,5.4,63,30.44,10.0,SSW,5.8,-,N/A,,Clear,200,2014-01-29 04:58:00
11:58 PM,14.5,4.6,65,30.43,10.0,SSW,4.6,-,N/A,,Clear,210,2014-01-29 05:58:00